This is the latest recevied weather packets stored in our database for station/object N9WHM. If no packets are shown the sender has not sent any weather packets the latest 10 day(s).
| Time | Temp. | Humidity | Pressure | Rain* | Wind** | Luminosity | Snow |
|---|---|---|---|---|---|---|---|
| 1777809846 | 11.67° C | 55% | 1009.6 hPa | 0 mm | - | 53 W/m² | - |
| 1777809544 | 11.67° C | 56% | 1009.5 hPa | 0 mm | - | 38 W/m² | - |
| 1777809242 | 11.11° C | 57% | 1009.4 hPa | 0 mm | - | 27 W/m² | - |
| 1777808934 | 11.11° C | 57% | 1009.5 hPa | 0 mm | - | 22 W/m² | - |
| 1777808630 | 11.67° C | 56% | 1009.4 hPa | 0 mm | - | 20 W/m² | - |
| 1777808327 | 11.67° C | 55% | 1009.4 hPa | 0 mm | - | 15 W/m² | - |
| 1777808026 | 11.67° C | 55% | 1009.5 hPa | 0 mm | - | 11 W/m² | - |
| 1777807722 | 11.67° C | 55% | 1009.2 hPa | 0 mm | - | 8 W/m² | - |
| 1777807421 | 12.22° C | 54% | 1009.1 hPa | 0 mm | - | 4 W/m² | - |
| 1777807115 | 12.22° C | 54% | 1009.3 hPa | 0 mm | - | 3 W/m² | - |
| 1777806814 | 12.22° C | 54% | 1009 hPa | 0 mm | - | 1 W/m² | - |
| 1777806509 | 12.22° C | 54% | 1009 hPa | 0 mm | - | 1 W/m² | - |
| 1777806206 | 11.67° C | 54% | 1009.1 hPa | 0 mm | - | 0 W/m² | - |
| 1777805902 | 11.67° C | 54% | 1009 hPa | 0 mm | - | 0 W/m² | - |
| 1777805599 | 12.22° C | 53% | 1009 hPa | 0 mm | - | 0 W/m² | - |
| 1777805297 | 12.22° C | 53% | 1009 hPa | 0 mm | - | 0 W/m² | - |
| 1777804995 | 12.22° C | 52% | 1009 hPa | 0 mm | - | 0 W/m² | - |
| 1777804692 | 12.22° C | 53% | 1009.1 hPa | 0 mm | - | 0 W/m² | - |
| 1777804390 | 12.78° C | 51% | 1009.1 hPa | 0 mm | - | 0 W/m² | - |
| 1777804087 | 12.78° C | 51% | 1008.8 hPa | 0 mm | - | 0 W/m² | - |
| 1777803783 | 12.78° C | 50% | 1009.1 hPa | 0 mm | - | 0 W/m² | - |
| 1777803479 | 12.78° C | 49% | 1009.3 hPa | 0 mm | - | 0 W/m² | - |
| 1777803177 | 12.78° C | 49% | 1009.2 hPa | 0 mm | - | 0 W/m² | - |
| 1777802874 | 12.78° C | 49% | 1009 hPa | 0 mm | - | 0 W/m² | - |
| 1777802572 | 12.78° C | 48% | 1009.1 hPa | 0 mm | - | 0 W/m² | - |
* Rain latest hour (hover to see other rain measurements)
** Current wind speed in m/s (hover to see current wind gust speed)